Location: Aix-en-Ergny
(50.5839°N, 1.9996°E)
Time: 08:13:25
(UTC+00:00)

Helios 1A Rocket - Pass Details

Date: 23 October 2019
Orbit: 565 x 586 km, 98.3° (Epoch: 11 November)

Event Time Altitude Azimuth Distance (km) Brightness Sun altitude
Rises 05:24:14 0° 15° (NNE) 2,829 6.6 -10.6°
Reaches altitude 10° 05:26:24 10° 17° (NNE) 1,924 5.7 -10.3°
Maximum altitude 05:30:35 80° 104° (ESE) 604 3.1 -9.6°
Drops below altitude 10° 05:34:44 10° 192° (SSW) 1,906 5.5 -9.0°
Sets 05:36:52 0° 193° (SSW) 2,800 6.4 -8.6°
